GW6578 Weather Reports


Display with metric or nautical units.
time (UTC)temp
F
wind
direction
speed
MPH
gust
MPH
rain 1hr
in
rain 24hr
in
rain mn
in
humidity
%
barometer
mb
20260510204544 90 355 2.0 12.0 0.00 0.03 0.03 57 1015.7
20260510203043 91 309 4.0 13.0 0.00 0.03 0.03 55 1015.7
20260510201540 90 205 2.0 11.0 0.00 0.03 0.03 56 1015.7
20260510200045 91 300 3.0 18.0 0.00 0.03 0.03 55 1015.7
20260510194555 91 221 3.0 12.0 0.00 0.03 0.03 56 1015.7
20260510193043 93 285 3.0 11.0 0.00 0.03 0.03 54 1015.7
20260510191541 93 229 5.0 16.0 0.00 0.03 0.03 54 1015.8
20260510190048 93 0 4.0 12.0 0.00 0.03 0.03 52 1015.7
20260510184545 93 210 5.0 12.0 0.00 0.03 0.03 52 1015.9
20260510183045 93 9 3.0 13.0 0.00 0.03 0.03 52 1016.0
20260510181544 92 319 3.0 17.0 0.00 0.03 0.03 51 1016.1
20260510180047 92 289 5.0 14.0 0.00 0.03 0.03 54 1016.4
20260510174541 91 238 4.0 14.0 0.00 0.03 0.03 55 1016.5
20260510173038 94 334 3.0 12.0 0.00 0.03 0.03 54 1016.7
20260510171535 91 274 4.0 9.0 0.00 0.03 0.03 59 1016.7
20260510170046 92 0 3.0 10.0 0.00 0.03 0.03 58 1017.1
20260510164549 90 228 2.0 8.0 0.00 0.03 0.03 61 1017.1
20260510163051 89 219 5.0 11.0 0.00 0.03 0.03 61 1017.2
20260510161558 92 161 3.0 11.0 0.00 0.03 0.03 59 1017.3
20260510160054 88 216 4.0 11.0 0.00 0.03 0.03 64 1017.4
20260510154545 91 196 3.0 10.0 0.00 0.03 0.03 56 1017.3
20260510153046 90 202 4.0 9.0 0.00 0.03 0.03 60 1017.3
20260510151539 87 341 3.0 10.0 0.00 0.03 0.03 66 1017.4
20260510150047 87 215 2.0 8.0 0.00 0.03 0.03 65 1017.4
20260510144546 85 0 2.0 10.0 0.00 0.03 0.03 68 1017.3
20260510143051 84 259 1.0 7.0 0.00 0.03 0.03 71 1017.4
20260510141542 84 192 2.0 8.0 0.00 0.03 0.03 72 1017.2
20260510140039 82 194 1.0 7.0 0.00 0.03 0.03 78 1017.0
20260510134535 81 134 1.0 6.0 0.00 0.03 0.03 78 1016.9
20260510133044 80 0 2.0 7.0 0.00 0.03 0.03 82 1016.8
20260510131545 77 0 1.0 3.0 0.00 0.03 0.03 89 1016.6
20260510130043 75 0 1.0 5.0 0.00 0.03 0.03 91 1016.7
20260510124547 75 0 0.0 3.0 0.00 0.03 0.03 95 1016.8
20260510123035 73 0 0.0 2.0 0.00 0.03 0.03 96 1016.6
20260510121542 73 0 0.0 0.0 0.00 0.03 0.03 96 1016.6
20260510120045 71 0 0.0 0.0 0.00 0.03 0.03 96 1016.3
20260510114539 70 0 0.0 0.0 0.00 0.03 0.03 96 1016.0
20260510113041 69 0 0.0 0.0 0.00 0.03 0.03 96 1015.7
20260510111553 69 0 0.0 0.0 0.00 0.03 0.03 96 1015.6
20260510110046 69 0 0.0 0.0 0.00 0.03 0.03 96 1015.4
20260510104549 69 0 0.0 0.0 0.00 0.03 0.03 96 1015.0
20260510103047 69 0 0.0 0.0 0.00 0.03 0.03 95 1014.7
20260510101539 69 0 0.0 0.0 0.01 0.03 0.03 95 1014.3
20260510100038 69 0 0.0 0.0 0.01 0.03 0.03 95 1014.4
20260510094542 69 0 0.0 0.0 0.01 0.03 0.03 95 1014.3
20260510093055 69 0 0.0 0.0 0.01 0.03 0.03 95 1014.0
20260510091540 70 0 0.0 0.0 0.00 0.02 0.02 95 1013.9
20260510090045 70 0 0.0 0.0 0.00 0.02 0.02 95 1013.9
20260510084539 70 0 0.0 0.0 0.00 0.02 0.02 95 1013.6
20260510083039 70 0 0.0 0.0 0.00 0.02 0.02 95 1013.7
20260510081606 71 0 0.0 0.0 0.00 0.02 0.02 95 1013.8
20260510080040 71 0 0.0 0.0 0.00 0.02 0.02 95 1013.9
20260510074545 71 0 0.0 0.0 0.00 0.02 0.02 95 1013.9
20260510073051 71 0 0.0 0.0 0.00 0.02 0.02 95 1014.0
20260510071545 71 0 0.0 0.0 0.00 0.02 0.02 94 1014.1
20260510070044 72 0 0.0 0.0 0.02 0.02 0.02 94 1014.1
20260510064552 72 0 0.0 0.0 0.02 0.02 0.02 94 1014.2
20260510063048 73 0 0.0 0.0 0.02 0.02 0.02 93 1014.4
20260510061549 73 0 0.0 0.0 0.02 0.02 0.02 91 1014.6
20260510060049 74 0 0.0 0.0 0.00 0.00 0.00 87 1015.1
20260510054544 74 0 0.0 0.0 0.00 0.00 0.00 87 1015.2
20260510053057 74 0 0.0 0.0 0.00 0.00 0.00 88 1015.2
20260510051550 74 0 0.0 0.0 0.00 0.00 0.00 87 1015.2
20260510050059 74 0 0.0 0.0 0.00 0.00 0.00 87 1015.3
20260510044555 74 0 0.0 0.0 0.00 0.00 0.00 87 1015.2
20260510043052 74 0 0.0 0.0 0.00 0.00 0.00 87 1015.4
20260510041538 75 0 0.0 0.0 0.00 0.00 0.00 87 1015.4
20260510040044 74 0 0.0 0.0 0.00 0.00 0.00 88 1015.3
20260510034546 74 0 0.0 0.0 0.00 0.00 0.00 88 1015.1
20260510033057 75 0 0.0 0.0 0.00 0.00 0.00 87 1015.2
20260510031545 75 0 0.0 0.0 0.00 0.00 0.00 86 1015.1
20260510030046 76 0 0.0 0.0 0.00 0.00 0.00 85 1015.2
20260510024539 76 0 0.0 0.0 0.00 0.00 0.00 84 1015.1
20260510023045 76 0 0.0 0.0 0.00 0.00 0.00 83 1015.1
20260510021541 77 0 0.0 0.0 0.00 0.00 0.00 83 1014.9
20260510020043 78 0 0.0 0.0 0.00 0.00 0.00 81 1014.7
20260510014542 79 0 0.0 2.0 0.00 0.00 0.00 79 1014.5
20260510013040 79 0 0.0 3.0 0.00 0.00 0.00 77 1014.5
20260510011545 80 0 0.0 3.0 0.00 0.00 0.00 75 1014.1
20260510010044 80 0 0.0 5.0 0.00 0.00 0.00 73 1014.1
20260510004543 80 0 0.0 2.0 0.00 0.00 0.00 72 1014.0
20260510003050 81 0 0.0 3.0 0.00 0.00 0.00 70 1013.7
20260510001539 82 303 1.0 6.0 0.00 0.00 0.00 68 1013.5
20260510000048 83 316 1.0 7.0 0.00 0.00 0.00 67 1013.4
20260509234553 84 240 1.0 8.0 0.00 0.00 0.00 64 1013.1
20260509233048 84 261 1.0 7.0 0.00 0.00 0.00 62 1013.0
20260509231542 85 242 2.0 9.0 0.00 0.00 0.00 59 1012.9
20260509230041 85 284 3.0 9.0 0.00 0.00 0.00 57 1012.9
20260509224608 86 305 3.0 10.0 0.00 0.00 0.00 55 1012.5
20260509223046 87 265 2.0 11.0 0.00 0.00 0.00 53 1012.4
20260509221541 88 352 1.0 9.0 0.00 0.00 0.00 53 1012.3
20260509220043 87 259 2.0 13.0 0.00 0.00 0.00 51 1012.2
20260509214545 89 228 4.0 14.0 0.00 0.00 0.00 50 1012.1
20260509213043 90 267 3.0 12.0 0.00 0.00 0.00 49 1012.0
20260509211540 89 244 1.0 10.0 0.00 0.00 0.00 51 1011.9
20260509210040 90 270 6.0 15.0 0.00 0.00 0.00 48 1011.8